SARSAT 7 (NOAA 15) 1 25338U 98030A 19338.87551561 .00000022 00000-0 27874-4 0 9999 2 25338 98.7353 359.7427 0011408 109.8938 250.3472 14.25941989121107 METEOSAT-8 (MSG-1) 1 27509U 02040B 19336.86924756 .00000140 00000-0 00000+0 0 9992 2 27509 6.3818 54.8922 0001610 189.3744 181.4781 1.00276033 63309 GPS BIIR-08 1 27663U 03005A 19338.65015287 -.00000049 00000-0 00000-0 0 9994 2 27663 56.1994 309.6676 0109241 32.2023 147.3482 2.00563527123449 GPS BIIR-11 1 28190U 04009A 19337.93883324 -.00000087 00000-0 00000-0 0 9992 2 28190 56.2815 10.4726 0089412 87.9530 89.8487 2.00565811115105 GPS BIIR-12 1 28361U 04023A 19338.06376942 .00000059 00000-0 00000-0 0 9994 2 28361 54.0522 183.3982 0134234 233.5267 305.2467 2.00558814113161 GPS BIIR-13 1 28474U 04045A 19338.73468244 -.00000080 00000-0 00000-0 0 9999 2 28474 54.8379 60.8309 0197417 263.0936 44.5439 2.00573756110564 SARSAT 10 (NOAA 18) 1 28654U 05018A 19338.79755393 .00000078 00000-0 67095-4 0 9997 2 28654 99.0743 28.1172 0015042 64.3997 295.8726 14.12471769749292 GPS BIIR-14M 1 28874U 05038A 19338.27011212 -.00000083 00000-0 00000-0 0 9997 2 28874 56.3951 7.8292 0136408 263.7973 172.7969 2.00571666103960 METEOSAT-9 (MSG-2) 1 28912U 05049B 19339.29901619 .00000028 00000-0 00000+0 0 9991 2 28912 4.0152 70.8054 0000917 82.3513 31.8603 1.00266099 51155 GOES 13 1 29155U 06018A 19338.88790241 -.00000312 00000-0 00000-0 0 9997 2 29155 0.2045 91.7658 0009550 165.2935 274.9185 1.00000218 19447 SARSAT 11 (METOP-A) 1 29499U 06044A 19338.91898778 -.00000009 00000-0 15270-4 0 9997 2 29499 98.5530 27.1110 0001677 100.6668 72.0380 14.21490148680924 GPS BIIR-16M 1 29601U 06052A 19337.71489805 -.00000047 00000-0 00000+0 0 9997 2 29601 56.1835 308.6218 0074496 61.7481 299.0008 2.00550956 95579 GPS BIIR-17M 1 32260U 07047A 19338.02928975 .00000062 00000-0 00000+0 0 9994 2 32260 53.1760 178.9304 0118821 47.6878 313.3746 2.00571207 88951 GPS BIIR-18M 1 32384U 07062A 19337.43923517 -.00000088 00000-0 00000+0 0 9998 2 32384 56.4847 8.5179 0008440 124.5515 299.9992 2.00565997 87686 SARSAT 12 (NOAA 19) 1 33591U 09005A 19338.93024126 .00000041 00000-0 47903-4 0 9998 2 33591 99.1910 334.2425 0013035 264.0817 95.8868 14.12385954557536 GOES 14 1 35491U 09033A 19338.65124707 -.00000087 00000-0 00000-0 0 9999 2 35491 0.1606 281.9699 0012594 305.5444 335.9592 1.00272172 38185 GOES 15 1 36411U 10008A 19338.69215854 .00000062 00000-0 00000-0 0 9996 2 36411 0.1814 274.7073 0001576 282.6295 356.7775 1.00278378 35749 GLONASS-K 1 1 37372U 11009A 19338.73378083 -.00000074 00000-0 00000-0 0 9998 2 37372 65.8018 34.3193 0010393 228.3370 90.3760 2.13107567 68232 GPS BIIF-2 1 37753U 11036A 19338.13161466 -.00000073 00000-0 00000+0 0 9998 2 37753 56.0370 65.0188 0090087 42.6983 313.2571 2.00567705 61395 GSAT0101 (GALILEO-PFM) 1 37846U 11060A 19338.03312532 -.00000086 00000-0 00000-0 0 9994 2 37846 56.4988 46.6942 0002459 302.3982 57.6187 1.70475624 50429 GSAT0102 (GALILEO-FM2) 1 37847U 11060B 19338.54025288 -.00000085 00000-0 00000-0 0 9999 2 37847 56.4992 46.6795 0004468 290.0270 67.2640 1.70475670 50439 LUCH 5A 1 37951U 11074B 19338.90433450 -.00000035 00000-0 00000-0 0 9999 2 37951 2.8317 121.5210 0002194 121.1315 323.2776 1.00273683 29269 METEOSAT-10 (MSG-3) 1 38552U 12035B 19338.80108883 .00000067 00000-0 00000-0 0 9997 2 38552 1.0467 352.2264 0002237 207.2578 171.4819 1.00269216 26963 SARSAT 13 (METOP-B) 1 38771U 12049A 19339.44236323 -.00000011 00000-0 15007-4 0 9994 2 38771 98.7216 36.4408 0001162 152.8677 270.4086 14.21480380374318 GPS BIIF-3 1 38833U 12053A 19338.12878281 -.00000030 00000-0 00000+0 0 9990 2 38833 53.7108 241.4225 0090604 34.9475 325.6976 2.00563775 52451 GSAT0103 (GALILEO-FM3) 1 38857U 12055A 19336.90218506 .00000070 00000-0 00000-0 0 9994 2 38857 54.9499 167.2210 0001004 243.1945 116.8377 1.70473954 44444 GSAT0104 (GALILEO-FM4) 1 38858U 12055B 19338.59624064 .00000084 00000-0 00000+0 0 9996 2 38858 54.9509 167.1736 0000251 93.9594 266.0901 1.70473925 44420 GPS BIIF-4 1 39166U 13023A 19337.98464410 -.00000083 00000-0 00000+0 0 9994 2 39166 56.0681 4.5563 0073145 26.8604 333.5655 2.00566138 47992 INSAT-3D 1 39216U 13038B 19338.86090951 -.00000149 00000-0 00000-0 0 9993 2 39216 0.0575 280.0004 0000928 318.5742 226.8114 1.00275047 23187 GPS BIIF-5 1 39533U 14008A 19337.98749578 -.00000036 00000-0 00000+0 0 9995 2 39533 53.8350 246.8428 0042091 195.9257 163.9889 2.00557662 42358 LUCH 5V 1 39727U 14023A 19339.50257869 -.00000258 00000-0 00000+0 0 9990 2 39727 0.8757 311.3477 0001749 336.7744 61.5528 1.00269090538592 GPS BIIF-6 1 39741U 14026A 19338.26351610 -.00000074 00000-0 00000-0 0 9997 2 39741 56.0145 64.5400 0018463 288.2649 71.5544 2.00559939 40661 GPS BIIF-7 1 40105U 14045A 19338.35009769 .00000064 00000-0 00000-0 0 9997 2 40105 54.5787 183.7834 0014556 97.2267 263.0060 2.00577824 38234 GSAT0201 (GALILEO 5) 1 40128U 14050A 19338.20279368 -.00000108 00000-0 00000-0 0 9996 2 40128 50.5802 9.2032 1663620 93.0440 286.0910 1.85519735 34060 GSAT0202 (GALILEO 6) 1 40129U 14050B 19337.92827930 -.00000109 00000-0 00000-0 0 9990 2 40129 50.6209 8.2436 1662209 93.8740 285.2630 1.85520409 36199 GPS BIIF-8 1 40294U 14068A 19337.23163167 .00000048 00000-0 00000+0 0 9991 2 40294 55.2517 124.7267 0024507 41.4154 318.7557 2.00565062 37295 GLONASS-K 2 1 40315U 14075A 19338.88068149 -.00000036 00000-0 00000-0 0 9998 2 40315 63.9699 273.6857 0016484 211.8814 319.1998 2.13098485 39005 GPS BIIF-9 1 40534U 15013A 19338.36400478 -.00000053 00000-0 00000-0 0 9991 2 40534 54.3805 302.9369 0042856 4.6328 355.4039 2.00559387 33951 GSAT0203 (GALILEO 7) 1 40544U 15017A 19337.22671633 -.00000087 00000-0 00000-0 0 9990 2 40544 56.2898 46.8779 0005028 242.1506 117.8388 1.70475327 28498 GSAT0204 (GALILEO 8) 1 40545U 15017B 19334.07547212 -.00000089 00000-0 00000+0 0 9997 2 40545 56.2945 46.9803 0003499 212.8291 147.1893 1.70475497 29100 GPS BIIF-10 1 40730U 15033A 19337.52646102 -.00000085 00000-0 00000+0 0 9998 2 40730 55.5893 3.8372 0048484 343.9665 15.9273 2.00573529 32126 METEOSAT-11 (MSG-4) 1 40732U 15034A 19338.79916963 .00000004 00000-0 00000-0 0 9997 2 40732 0.7011 243.7122 0000260 358.8352 118.1634 1.00272102 16118 GSAT0205 (GALILEO 9) 1 40889U 15045A 19337.83822984 -.00000043 00000-0 00000-0 0 9999 2 40889 56.3114 287.5102 0004187 348.7520 11.2317 1.70474625 26318 GSAT0206 (GALILEO 10) 1 40890U 15045B 19338.05786183 -.00000043 00000-0 00000-0 0 9996 2 40890 56.3102 287.5006 0002948 329.1361 30.8396 1.70474650 26344 GPS BIIF-11 1 41019U 15062A 19338.57240750 .00000054 00000-0 00000-0 0 9992 2 41019 55.2514 124.4938 0052352 205.8022 153.9250 2.00564663 29969 ELEKTRO-L 2 1 41105U 15074A 19338.95798470 -.00000089 00000-0 00000-0 0 9999 2 41105 0.7380 100.9091 0000324 131.1861 262.3433 1.00271700 14591 GSAT0209 (GALILEO 12) 1 41174U 15079A 19339.40323194 .00000090 00000-0 00000+0 0 9998 2 41174 54.9643 166.8479 0003081 337.5434 22.4917 1.70473510 24685 GSAT0208 (GALILEO 11) 1 41175U 15079B 19338.44986840 .00000083 00000-0 00000+0 0 9997 2 41175 54.9614 166.8740 0002397 348.5283 11.5120 1.70473472 24679 GPS BIIF-12 1 41328U 16007A 19338.16427563 .00000061 00000-0 00000+0 0 9996 2 41328 54.8174 184.2259 0034391 217.1240 142.7047 2.00565659 28011 GSAT0211 (GALILEO 14) 1 41549U 16030A 19339.15829601 -.00000043 00000-0 00000+0 0 9997 2 41549 56.4507 287.3067 0004440 306.8186 53.1328 1.70474415 21973 GSAT0210 (GALILEO 13) 1 41550U 16030B 19338.86472390 -.00000043 00000-0 00000-0 0 9996 2 41550 56.4508 287.3165 0003958 281.5459 78.4022 1.70474363 21984 INSAT-3DR 1 41752U 16054A 19338.81855307 -.00000069 00000-0 00000-0 0 9992 2 41752 0.1456 98.3996 0013078 172.0031 171.6187 1.00271564 11878 GSAT0207 (GALILEO 15) 1 41859U 16069A 19337.93651903 .00000078 00000-0 00000+0 0 9992 2 41859 54.6219 167.3005 0002427 320.3115 39.7156 1.70473428 18936 GSAT0212 (GALILEO 16) 1 41860U 16069B 19336.61680386 .00000068 00000-0 00000-0 0 9995 2 41860 54.6195 167.3364 0002602 2.0676 357.9758 1.70473422 18937 GSAT0213 (GALILEO 17) 1 41861U 16069C 19338.15590538 .00000079 00000-0 00000-0 0 9998 2 41861 54.6222 167.2971 0001125 277.4003 82.6324 1.70473605 18960 GSAT0214 (GALILEO 18) 1 41862U 16069D 19338.88949322 .00000085 00000-0 00000+0 0 9994 2 41862 54.6208 167.2725 0000553 319.6512 40.3924 1.70473499 18968 GOES 16 1 41866U 16071A 19339.43029459 -.00000238 00000-0 00000+0 0 9994 2 41866 0.0194 91.1620 0000547 186.2818 236.2002 1.00269083 11185 GSAT-17 1 42815U 17040B 19338.79077023 -.00000250 00000-0 00000-0 0 9999 2 42815 0.0283 133.5457 0006517 117.8295 200.1318 1.00271009 8884 GSAT0215 (GALILEO 19) 1 43055U 17079A 19338.20496435 -.00000043 00000-0 00000-0 0 9996 2 43055 56.4264 287.1798 0003259 277.5461 82.4101 1.70473583 12297 GSAT0216 (GALILEO 20) 1 43056U 17079B 19337.91128052 -.00000043 00000-0 00000-0 0 9991 2 43056 56.4266 287.1874 0005192 275.6669 84.2671 1.70473691 12306 GSAT0217 (GALILEO 21) 1 43057U 17079C 19338.71788318 -.00000043 00000-0 00000-0 0 9998 2 43057 56.4243 287.1662 0004748 287.4307 72.5102 1.70473687 12307 GSAT0218 (GALILEO 22) 1 43058U 17079D 19338.35126808 -.00000043 00000-0 00000-0 0 9999 2 43058 56.4250 287.1736 0005587 272.1808 87.7483 1.70473634 12321 GOES 17 1 43226U 18022A 19338.69989494 .00000105 00000-0 00000-0 0 9998 2 43226 0.0542 117.0420 0000358 100.6757 330.2737 1.00272433 6482 GSAT0221 (GALILEO 25) 1 43564U 18060A 19337.66576419 -.00000086 00000-0 00000+0 0 9998 2 43564 56.6800 46.4414 0005473 258.4753 101.5044 1.70476460 8474 GSAT0222 (GALILEO 26) 1 43565U 18060B 19338.47221929 -.00000085 00000-0 00000+0 0 9991 2 43565 56.6826 46.4184 0005114 264.9147 95.0682 1.70476496 8528 GSAT0219 (GALILEO 23) 1 43566U 18060C 19339.27891338 -.00000082 00000-0 00000+0 0 9995 2 43566 56.6836 46.3977 0004922 259.9074 100.0787 1.70476362 8512 GSAT0220 (GALILEO 24) 1 43567U 18060D 19338.91220177 -.00000083 00000-0 00000+0 0 9994 2 43567 56.6832 46.4083 0004906 260.5977 99.3882 1.70476461 8482 BEIDOU-3 M13 1 43622U 18072A 19338.59889262 .00000086 00000-0 00000-0 0 9992 2 43622 55.0745 142.5148 0003687 287.3644 307.2923 1.86231720 8204 BEIDOU-3 M14 1 43623U 18072B 19338.53065463 .00000085 00000-0 00000-0 0 9995 2 43623 55.0762 142.5075 0003287 333.6656 305.4148 1.86231803 8208